Simultaneous Nadir Overpasses (SNOs) Predictions

Prediction of SNOs between GOES-15 and METOP-C Satellite Orbit:

Table of predicted SNOs for the next 14.0 days since TLE Epoch: 6/26/2024
Index Date Time (GOES-15) GOES-15 Lat,Lon METOP-C Lat,Lon Distance(km) Time Diff (sec)
1 06/26/2024 17:07:24 0.18, 61.25 1.05, 65.22 452.12 80
2 06/28/2024 05:28:56 -0.15, 61.19 -0.05, 60.66 60.78 80
3 06/30/2024 17:27:19 0.14, 61.23 0.10, 61.06 18.99 80
4 07/03/2024 05:22:52 -0.13, 61.18 -0.17, 61.50 36.43 80
5 07/04/2024 17:44:33 0.09, 61.23 -0.88, 56.91 492.06 80
6 07/05/2024 17:21:15 0.12, 61.23 0.26, 61.90 76.25 80
7 07/07/2024 05:42:47 -0.08, 61.18 0.75, 57.34 437.23 80
8 07/08/2024 05:19:28 -0.12, 61.18 -0.39, 62.33 130.81 80
9 07/09/2024 17:41:09 0.08, 61.24 -0.69, 57.74 397.70 80
